Location: Canazei
(46.4667°N, 11.7667°E)
Time: 06:38:28
(UTC+00:00)

Cosmos 1821 Rocket - Pass Details

Date: 21 April 2021
Orbit: 946 x 1003 km, 82.9° (Epoch: 15 May)

Event Time Altitude Azimuth Distance (km) Brightness Sun altitude
Rises 01:14:00 0° 351° (N) 3,704 7.7 -25.5°
Reaches altitude 10° 01:16:31 10° 353° (N) 2,759 7.0 -25.3°
Maximum altitude 01:22:53 82° 81° (E) 1,013 4.0 -24.7°
Enters shadow 01:25:39 37° 165° (SSE) 1,509 4.7 -24.4°
